AirNav  
 
 1078 users online  

4KS7 Butler Airpark
Rose Hill, Kansas, USA

GOING TO ROSE HILL?


FAA INFORMATION EFFECTIVE 25 FEBRUARY 2021

Location

FAA Identifier: 4KS7
Lat/Long: 37-33-32.0680N 097-03-54.1380W
37-33.534467N 097-03.902300W
37.5589078,-97.0650383
(estimated)
Elevation: 1310 ft. / 399 m (estimated)
Variation: 07E (1985)
From city: 3 miles E of ROSE HILL, KS
Time zone: UTC -6 (UTC -5 during Daylight Saving Time)
Zip code: 67133

Airport Operations

Airport use: Private use. Permission required prior to landing
Activation date: 04/1991
Control tower: no
ARTCC: KANSAS CITY CENTER
FSS: WICHITA FLIGHT SERVICE STATION
Attendance: IREG
Wind indicator: yes
Segmented circle: yes

Airport Communications

WX AWOS-3PT at 3AU (7 nm N): 124.175 (316-733-6696)
WX AWOS-3PT at BEC (11 nm NW): 119.45 (316-515-7116)
WX AWOS-3 at 1K1 (13 nm N): 118.3 (316-530-6004)
WX ASOS at AAO (14 nm NW): 134.025 (316-636-2541)
WX AWOS-3P at EQA (17 nm NE): 120.875 (316-322-8095)
WX ASOS at ICT (18 nm W): PHONE 316-945-8022

Nearby radio navigation aids

VOR radial/distance  VOR name  Freq  Var
ICTr107/27.1WICHITA VORTAC113.8007E

 
NDB name  Hdg/Dist  Freq  Var  ID
NEWTON156/31.928106EEWK . .-- -.-

Airport Services

Runway Information

Runway 1/19

Dimensions: 2687 x 40 ft. / 819 x 12 m
Surface: turf
RUNWAY 1  RUNWAY 19
Traffic pattern: rightleft
Obstructions: 15 ft. road, 30 ft. from runwaynone

Airport Ownership and Management from official FAA records

Ownership: Privately-owned
Owner: BUTLER AIRPARK HOMEOWNERS ASSN INC
PO BOX 14
ROSE HILL, KS 67133
Phone (316) 925-2215
Manager: MILO D. MCCLURE
18404 SW PRAIRIE RIDGE RD
ROSE HILL, KS 67133
Phone (316) 925-2215

Airport Operational Statistics

Aircraft based on the field: 8
Single engine airplanes: 6
Ultralights: 2
    

Additional Remarks

ALL TRAFFIC REMAIN EAST OF RY.
FOR CD CTC WICHITA APCH AT 316-350-1520.

Instrument Procedures

There are no published instrument procedures at 4KS7.

Some nearby airports with instrument procedures:

3AU - Augusta Municipal Airport (7 nm N)
KCEA - Cessna Aircraft Field Airport (10 nm NW)
KIAB - Mc Connell Air Force Base (10 nm W)
KBEC - Beech Factory Airport (11 nm NW)
1K1 - Lloyd Stearman Field Airport (13 nm N)
KAAO - Colonel James Jabara Airport (14 nm NW)
KEQA - El Dorado/Capt Jack Thomas Memorial Airport (17 nm NE)
KICT - Wichita Dwight D Eisenhower NTL Airport (18 nm W)
 
Loc | Ops | Rwys | IFR | FBO | Links
Com | Nav | Svcs | Stats | Notes
Area around 4KS7 (Butler Airpark)
 
Road maps at: MapQuest Bing Google
 
Aerial photo
WARNING: Photo may not be current or correct
Aerial photo of 4KS7 (Butler Airpark)
Photo by Brian FitzGerald
Photo taken 15-Jun-2016
from 1/2 mile SSW at 900 AGL.

Do you have a better or more recent aerial photo of Butler Airpark that you would like to share? If so, please send us your photo.

 
Sectional chart

 
Airport distance calculator
Flying to Butler Airpark? Find the distance to fly.

From to 4KS7

Sunrise and sunset
Times for 07-Mar-2021
 Local
(UTC-6)
 Zulu
(UTC)
Morning civil twilight06:2612:26
Sunrise06:5212:52
Sunset18:2700:27
Evening civil twilight18:5300:53

Current date and time
Zulu (UTC)  07-Mar-2021 16:40:11
Local (UTC-6)  07-Mar-2021 10:40:11
 
METAR
K3AU 
7nm N 
071615Z AUTO 20018G24KT 10SM CLR 12/00 A3030 RMK AO2
KIAB 
10nm W 
071556Z AUTO 23021G28KT 10SM CLR 12/M02 A3028 RMK AO2 PK WND 22029/26 SLP259 T01201019
KBEC 
11nm NW 
071615Z AUTO 20018G23KT 10SM CLR 13/M01 A3029 RMK AO2 T01251009
K1K1 
13nm N 
071615Z AUTO 21013G23KT 10SM CLR 12/M01 A3030 RMK AO2 T01211009
KAAO 
14nm NW 
071554Z AUTO 20016G27KT 10SM CLR 13/M01 A3029 RMK AO2 PK WND 20028/1540 SLP259 T01281011
KEQA 
17nm NE 
071615Z AUTO 20016G23KT 10SM CLR 15/M01 A3031 RMK AO2
KICT 
18nm W 
071553Z 20017G27KT 10SM FEW200 SCT250 12/00 A3028 RMK AO2 PK WND 19028/1536 SLP255 T01220000
TAF
KIAB 
10nm W 
071000Z 0710/0816 18012G18KT 9999 FEW250 QNH3019INS BECMG 0713/0714 19020G25KT 9999 SKC QNH3026INS BECMG 0717/0718 19025G35KT 9999 SKC QNH3033INS BECMG 0723/0724 19012KT 9999 SKC QNH3032INS TX19/0722Z TN06/0712Z
KICT 
18nm W 
071122Z 0712/0812 19010KT P6SM FEW250 FM071400 19014G22KT P6SM FEW250 FM071700 19022G30KT P6SM FEW250 FM080100 18016G24KT P6SM SKC FM080600 18015G20KT P6SM SKC WS020/21040KT
NOTAMs
Click for the latest NOTAMs
NOTAMs are issued by the DoD/FAA and will open in a separate window not controlled by AirNav.

 

 
 

Would you like to see your business listed on this page?

 If your business provides an interesting product or service to pilots, flight crews, aircraft, or users of the Butler Airpark, you should consider listing it here.  To start the listing process, click on the button below
 
Add a business
 

Other Pages about Butler Airpark

Update a link
 
Copyright © AirNav, LLC. All rights reserved. Privacy Policy  Contact